AKDT,Max TemperatureF,Mean TemperatureF,Min TemperatureF,Max Dew PointF,MeanDew PointF,Min DewpointF,Max Humidity, Mean Humidity, Min Humidity, Max Sea Level PressureIn, Mean Sea Level PressureIn, Min Sea Level PressureIn, Max VisibilityMiles, Mean VisibilityMiles, Min VisibilityMiles, Max Wind SpeedMPH, Mean Wind SpeedMPH, Max Gust SpeedMPH,PrecipitationIn, CloudCover, Events, WindDirDegrees
2013-6-1,54,49,46,43,42,40,87,79,66,30.24,30.21,30.19,10,10,6,10,4,,0.08,7,Rain,251
2013-6-2,57,48,39,41,38,36,89,67,49,30.25,30.19,30.07,10,10,10,6,2,,0.01,5,Fog-Rain,252
2013-6-3,55,49,44,41,38,34,85,66,48,30.05,29.88,29.73,10,10,10,13,3,,0.06,8,Rain,75
2013-6-4,53,49,45,43,41,38,87,78,61,29.86,29.74,29.68,10,10,8,10,3,,0.08,7,Rain,245
2013-6-5,57,47,37,41,37,34,89,70,44,29.98,29.94,29.87,10,10,10,10,3,,0.00,4,,200
2013-6-6,61,49,39,43,36,32,79,60,36,29.94,29.84,29.77,10,10,10,18,5,25,0.00,1,,235
2013-6-7,66,52,39,40,36,33,77,53,35,29.95,29.83,29.76,10,10,10,15,5,,0.00,1,,281
2013-6-8,66,56,46,45,41,35,74,55,43,30.15,30.06,29.96,10,10,10,16,6,18,0.00,2,Rain,257
2013-6-9,62,54,46,44,42,40,80,62,48,30.25,30.22,30.16,10,10,10,20,4,21,0.00,0,,261
2013-6-10,57,52,46,44,42,40,80,65,56,30.28,30.24,30.17,10,10,10,18,7,,0.00,0,,266
2013-6-11,63,54,46,45,43,40,86,68,49,30.17,30.09,30.03,10,10,10,15,6,22,0.00,0,,246
2013-6-12,61,52,44,45,43,39,83,71,51,30.04,30.01,29.99,10,10,10,16,7,83,0.00,0,,250
2013-6-13,66,53,42,44,43,39,90,71,39,30.20,30.10,30.03,10,9,4,20,5,25,0.00,1,,250
2013-6-14,62,50,39,47,44,37,93,78,55,30.29,30.25,30.22,10,8,1,16,5,,0.00,1,,237
2013-6-15,57,52,46,47,44,42,86,76,67,30.33,30.30,30.27,10,10,9,14,3,,0.00,0,Fog,238
2013-6-16,64,54,44,50,45,41,100,80,54,30.27,30.23,30.17,10,7,0,12,2,,0.00,0,Fog,241
2013-6-17,66,56,48,51,47,44,86,67,53,30.16,30.05,29.90,10,10,10,12,4,,0.00,0,,232
2013-6-18,73,64,54,51,46,41,80,55,34,29.94,29.85,29.82,10,10,10,16,7,24,0.00,0,,167
2013-6-19,62,58,53,52,46,42,87,68,51,30.01,29.93,29.86,10,10,5,13,5,21,0.18,5,Rain,65
2013-6-20,59,55,51,47,45,42,80,71,62,30.06,30.03,30.00,10,10,10,15,5,,0.00,5,,257
2013-6-21,57,52,48,43,41,39,77,66,53,30.12,30.09,30.06,10,10,10,12,7,16,0.00,6,,182
2013-6-22,55,49,43,44,42,38,83,68,55,30.07,29.93,29.78,10,10,10,10,2,,0.00,5,,229
2013-6-23,57,54,50,47,43,41,86,65,55,29.77,29.71,29.67,10,10,9,9,4,,0.00,8,,217
2013-6-24,59,52,48,49,47,45,94,84,70,29.71,29.69,29.67,10,10,8,16,5,,0.04,5,Rain,227
2013-6-25,70,56,46,52,47,43,90,73,49,29.67,29.64,29.62,10,10,10,8,4,,0.00,4,,70
2013-6-26,72,62,51,54,49,45,86,70,44,29.91,29.72,29.62,10,10,6,12,4,,0.02,2,Rain,136
2013-6-27,60,54,48,52,49,45,93,83,69,30.11,30.03,29.93,10,8,0,17,4,22,0.00,4,Fog,236
2013-6-28,64,58,53,50,48,47,86,71,60,30.20,30.17,30.12,10,10,10,8,4,,0.00,7,,252
2013-6-29,57,54,51,48,47,44,89,78,67,30.16,30.10,30.05,10,10,10,18,7,114,0.00,5,,250
2013-6-30,61,52,46,48,45,43,90,75,62,30.07,29.99,29.86,10,10,10,13,3,22,0.02,5,Rain,148